This is the latest recevied weather packets stored in our database for station/object KE2A-13. If no packets are shown the sender has not sent any weather packets the latest 10 day(s).
| Time | Temp. | Humidity | Pressure | Rain* | Wind** | Luminosity | Snow |
|---|---|---|---|---|---|---|---|
| 1778054400 | 16.67° C | 78% | 1009.5 hPa | - | - | - | - |
| 1778053500 | 17.22° C | 75% | 1009.6 hPa | - | - | - | - |
| 1778052600 | 18.89° C | 70% | 1009.4 hPa | - | - | - | - |
| 1778051700 | 18.89° C | 69% | 1009.6 hPa | - | - | - | - |
| 1778050800 | 18.89° C | 69% | 1009.6 hPa | - | - | - | - |
| 1778049900 | 18.89° C | 69% | 1009.7 hPa | - | - | - | - |
| 1778049000 | 18.89° C | 69% | 1009.6 hPa | - | - | - | - |
| 1778048100 | 19.44° C | 68% | 1009.6 hPa | - | - | - | - |
| 1778047200 | 19.44° C | 66% | 1009.6 hPa | - | - | - | - |
| 1778046300 | 19.44° C | 65% | 1009.7 hPa | - | - | - | - |
| 1778045400 | 19.44° C | 65% | 1009.8 hPa | - | - | - | - |
| 1778044500 | 19.44° C | 65% | 1010.1 hPa | - | - | - | - |
| 1778043600 | 20° C | 62% | 1010.1 hPa | - | - | - | - |
| 1778042700 | 20° C | 62% | 1010.1 hPa | - | - | - | - |
| 1778041800 | 20° C | 63% | 1010.1 hPa | - | - | - | - |
| 1778040900 | 20° C | 63% | 1010.1 hPa | - | - | - | - |
| 1778040000 | 20° C | 61% | 1009.9 hPa | 1.52 mm | - | - | - |
| 1778039100 | 20° C | 61% | 1010 hPa | 1.52 mm | - | - | - |
| 1778038200 | 20° C | 61% | 1010 hPa | 1.52 mm | - | - | - |
| 1778037300 | 20° C | 61% | 1009.8 hPa | 1.52 mm | - | - | - |
| 1778036400 | 20° C | 62% | 1009.7 hPa | 1.52 mm | - | - | - |
| 1778035500 | 20° C | 61% | 1009.6 hPa | 1.52 mm | - | - | - |
| 1778034600 | 20° C | 61% | 1009.8 hPa | 1.52 mm | - | - | - |
| 1778033700 | 19.44° C | 61% | 1009.7 hPa | 1.52 mm | - | - | - |
| 1778032800 | 19.44° C | 62% | 1009.6 hPa | 1.52 mm | - | - | - |
* Rain since midnight (hover to see other rain measurements)
** Current wind speed in m/s (hover to see current wind gust speed)